| time (UTC) | temp F | wind direction | speed MPH | gust MPH | rain 1hr in | rain 24hr in | rain mn in | humidity % | barometer mb |
| 20260509191932 | 57 | 86 | 0.0 | 0.0 | 0.00 | 0.00 | 0.00 | 73 | 1017.5 |
| 20260509191430 | 57 | 56 | 0.0 | 1.0 | 0.00 | 0.00 | 0.00 | 73 | 1017.5 |
| 20260509190932 | 57 | 87 | 0.0 | 1.0 | 0.00 | 0.00 | 0.00 | 72 | 1017.5 |
| 20260509185914 | 58 | 111 | 0.0 | 1.0 | 0.00 | 0.00 | 0.00 | 71 | 1017.5 |
| 20260509185412 | 58 | 53 | 0.0 | 1.0 | 0.00 | 0.00 | 0.00 | 71 | 1017.5 |
| 20260509184911 | 58 | 354 | 0.0 | 1.0 | 0.00 | 0.00 | 0.00 | 70 | 1017.4 |
| 20260509184406 | 58 | 49 | 0.0 | 1.0 | 0.00 | 0.00 | 0.00 | 69 | 1017.4 |
| 20260509183906 | 59 | 352 | 0.0 | 1.0 | 0.00 | 0.00 | 0.00 | 68 | 1017.3 |
| 20260509183408 | 59 | 70 | 0.0 | 1.0 | 0.00 | 0.00 | 0.00 | 68 | 1017.3 |
| 20260509182337 | 60 | 271 | 0.0 | 1.0 | 0.00 | 0.00 | 0.00 | 66 | 1017.3 |
| 20260509181345 | 60 | 164 | 0.0 | 1.0 | 0.00 | 0.00 | 0.00 | 66 | 1017.3 |
| 20260509180845 | 60 | 51 | 0.0 | 1.0 | 0.00 | 0.00 | 0.00 | 66 | 1017.3 |
| 20260509180335 | 61 | 153 | 0.0 | 1.0 | 0.00 | 0.00 | 0.00 | 65 | 1017.4 |
| 20260509175836 | 61 | 82 | 0.0 | 1.0 | 0.00 | 0.00 | 0.00 | 64 | 1017.3 |
| 20260509175333 | 61 | 68 | 0.0 | 1.0 | 0.00 | 0.00 | 0.00 | 63 | 1017.3 |
| 20260509174318 | 62 | 314 | 0.0 | 1.0 | 0.00 | 0.00 | 0.00 | 62 | 1017.3 |
| 20260509173826 | 62 | 235 | 0.0 | 1.0 | 0.00 | 0.00 | 0.00 | 61 | 1017.4 |
| 20260509173317 | 62 | 39 | 0.0 | 0.0 | 0.00 | 0.00 | 0.00 | 60 | 1017.5 |
| 20260509172810 | 62 | 39 | 0.0 | 1.0 | 0.00 | 0.00 | 0.00 | 59 | 1017.4 |
| 20260509172309 | 62 | 39 | 0.0 | 1.0 | 0.00 | 0.00 | 0.00 | 57 | 1017.4 |
| 20260509171807 | 62 | 64 | 0.0 | 1.0 | 0.00 | 0.00 | 0.00 | 56 | 1017.4 |
| 20260509171235 | 63 | 44 | 0.0 | 1.0 | 0.00 | 0.00 | 0.00 | 55 | 1017.4 |
| 20260509170746 | 62 | 41 | 0.0 | 1.0 | 0.00 | 0.00 | 0.00 | 55 | 1017.3 |
| 20260509170233 | 62 | 49 | 0.0 | 1.0 | 0.00 | 0.00 | 0.00 | 57 | 1017.2 |
| 20260509165713 | 62 | 35 | 0.0 | 1.0 | 0.00 | 0.00 | 0.00 | 56 | 1017.2 |
| 20260509164709 | 62 | 41 | 0.0 | 1.0 | 0.00 | 0.00 | 0.00 | 56 | 1017.3 |
| 20260509164146 | 62 | 41 | 0.0 | 1.0 | 0.00 | 0.00 | 0.00 | 56 | 1017.3 |
| 20260509163635 | 62 | 22 | 0.0 | 2.0 | 0.00 | 0.00 | 0.00 | 56 | 1017.3 |
| 20260509163134 | 62 | 25 | 0.0 | 2.0 | 0.00 | 0.00 | 0.00 | 56 | 1017.2 |
| 20260509162623 | 62 | 70 | 0.0 | 2.0 | 0.00 | 0.00 | 0.00 | 56 | 1017.2 |
| 20260509161605 | 62 | 49 | 0.0 | 2.0 | 0.00 | 0.00 | 0.00 | 55 | 1017.2 |
| 20260509161106 | 62 | 48 | 0.0 | 2.0 | 0.00 | 0.00 | 0.00 | 55 | 1017.2 |
| 20260509160609 | 62 | 30 | 0.0 | 4.0 | 0.00 | 0.00 | 0.00 | 54 | 1017.2 |
| 20260509160109 | 63 | 56 | 0.0 | 4.0 | 0.00 | 0.00 | 0.00 | 54 | 1017.2 |
| 20260509155538 | 63 | 23 | 0.0 | 3.0 | 0.00 | 0.00 | 0.00 | 54 | 1017.2 |
| 20260509155038 | 62 | 40 | 0.0 | 1.0 | 0.00 | 0.00 | 0.00 | 54 | 1017.1 |
| 20260509154536 | 62 | 40 | 0.0 | 1.0 | 0.00 | 0.00 | 0.00 | 54 | 1017.2 |
| 20260509154040 | 63 | 45 | 0.0 | 1.0 | 0.00 | 0.00 | 0.00 | 54 | 1017.3 |
| 20260509153533 | 63 | 46 | 0.0 | 3.0 | 0.00 | 0.00 | 0.00 | 53 | 1017.3 |
| 20260509153034 | 63 | 38 | 0.0 | 3.0 | 0.00 | 0.00 | 0.00 | 53 | 1017.4 |
| 20260509152516 | 64 | 47 | 0.0 | 4.0 | 0.00 | 0.00 | 0.00 | 53 | 1017.4 |
| 20260509151525 | 64 | 39 | 0.0 | 4.0 | 0.00 | 0.00 | 0.00 | 53 | 1017.5 |
| 20260509151016 | 64 | 32 | 0.0 | 4.0 | 0.00 | 0.00 | 0.00 | 54 | 1017.5 |
| 20260509150029 | 63 | 25 | 0.0 | 5.0 | 0.00 | 0.00 | 0.00 | 56 | 1017.5 |
| 20260509145022 | 63 | 53 | 0.0 | 1.0 | 0.00 | 0.00 | 0.00 | 54 | 1017.6 |
| 20260509144523 | 63 | 57 | 0.0 | 4.0 | 0.00 | 0.00 | 0.00 | 54 | 1017.6 |
| 20260509143526 | 64 | 47 | 0.0 | 5.0 | 0.00 | 0.00 | 0.00 | 50 | 1017.8 |
| 20260509142517 | 64 | 61 | 0.0 | 3.0 | 0.00 | 0.00 | 0.00 | 50 | 1017.9 |
| 20260509142020 | 63 | 51 | 0.0 | 1.0 | 0.00 | 0.00 | 0.00 | 51 | 1017.9 |
| 20260509141519 | 63 | 49 | 0.0 | 1.0 | 0.00 | 0.00 | 0.00 | 51 | 1017.9 |
| 20260509141021 | 63 | 45 | 0.0 | 1.0 | 0.00 | 0.00 | 0.00 | 51 | 1018.0 |
| 20260509140519 | 64 | 47 | 0.0 | 1.0 | 0.00 | 0.00 | 0.00 | 51 | 1018.1 |
| 20260509140023 | 64 | 252 | 0.0 | 1.0 | 0.00 | 0.00 | 0.00 | 52 | 1018.1 |
| 20260509135509 | 64 | 49 | 0.0 | 5.0 | 0.00 | 0.00 | 0.00 | 51 | 1018.1 |
| 20260509135021 | 65 | 65 | 1.0 | 5.0 | 0.00 | 0.00 | 0.00 | 50 | 1018.0 |
| 20260509134518 | 65 | 22 | 1.0 | 6.0 | 0.00 | 0.00 | 0.00 | 50 | 1018.1 |
| 20260509134023 | 65 | 50 | 0.0 | 6.0 | 0.00 | 0.00 | 0.00 | 48 | 1018.1 |
| 20260509133522 | 65 | 48 | 0.0 | 6.0 | 0.00 | 0.00 | 0.00 | 51 | 1018.1 |
| 20260509133017 | 65 | 36 | 0.0 | 6.0 | 0.00 | 0.00 | 0.00 | 51 | 1018.2 |
| 20260509132002 | 66 | 104 | 0.0 | 3.0 | 0.00 | 0.00 | 0.00 | 49 | 1018.3 |
| 20260509131459 | 66 | 248 | 0.0 | 3.0 | 0.00 | 0.00 | 0.00 | 50 | 1018.3 |
| 20260509130450 | 67 | 58 | 0.0 | 5.0 | 0.00 | 0.00 | 0.00 | 45 | 1018.5 |
| 20260509125935 | 67 | 79 | 0.0 | 5.0 | 0.00 | 0.00 | 0.00 | 46 | 1018.5 |
| 20260509125431 | 68 | 37 | 0.0 | 2.0 | 0.00 | 0.00 | 0.00 | 45 | 1018.5 |
| 20260509124932 | 68 | 356 | 0.0 | 1.0 | 0.00 | 0.00 | 0.00 | 46 | 1018.6 |
| 20260509123905 | 67 | 61 | 0.0 | 1.0 | 0.00 | 0.00 | 0.00 | 47 | 1018.6 |
| 20260509123407 | 67 | 57 | 0.0 | 3.0 | 0.00 | 0.00 | 0.00 | 46 | 1018.8 |
| 20260509122911 | 67 | 58 | 0.0 | 5.0 | 0.00 | 0.00 | 0.00 | 46 | 1018.8 |
| 20260509121833 | 68 | 98 | 0.0 | 1.0 | 0.00 | 0.00 | 0.00 | 45 | 1019.0 |
| 20260509121336 | 68 | 105 | 0.0 | 5.0 | 0.00 | 0.00 | 0.00 | 46 | 1019.0 |
| 20260509120830 | 68 | 48 | 0.0 | 5.0 | 0.00 | 0.00 | 0.00 | 47 | 1019.0 |
| 20260509120332 | 67 | 67 | 1.0 | 4.0 | 0.00 | 0.00 | 0.00 | 47 | 1019.1 |
| 20260509115332 | 67 | 58 | 0.0 | 4.0 | 0.00 | 0.00 | 0.00 | 47 | 1019.1 |
| 20260509114824 | 68 | 57 | 0.0 | 4.0 | 0.00 | 0.00 | 0.00 | 46 | 1019.2 |
| 20260509114319 | 67 | 34 | 0.0 | 4.0 | 0.00 | 0.00 | 0.00 | 47 | 1019.2 |
| 20260509113809 | 67 | 53 | 0.0 | 8.0 | 0.00 | 0.00 | 0.00 | 48 | 1019.3 |
| 20260509112805 | 67 | 41 | 0.0 | 6.0 | 0.00 | 0.00 | 0.00 | 51 | 1019.2 |
| 20260509112307 | 67 | 32 | 0.0 | 4.0 | 0.00 | 0.00 | 0.00 | 49 | 1019.2 |
| 20260509111806 | 67 | 8 | 0.0 | 4.0 | 0.00 | 0.00 | 0.00 | 48 | 1019.3 |
| 20260509111304 | 67 | 60 | 0.0 | 4.0 | 0.00 | 0.00 | 0.00 | 49 | 1019.2 |
| 20260509110317 | 67 | 47 | 0.0 | 4.0 | 0.00 | 0.00 | 0.00 | 50 | 1019.3 |
| 20260509105803 | 67 | 59 | 1.0 | 5.0 | 0.00 | 0.00 | 0.00 | 51 | 1019.2 |
| 20260509104805 | 65 | 29 | 0.0 | 3.0 | 0.00 | 0.00 | 0.00 | 53 | 1019.3 |
| 20260509104239 | 64 | 136 | 0.0 | 7.0 | 0.00 | 0.00 | 0.00 | 53 | 1019.4 |
| 20260509103736 | 65 | 33 | 0.0 | 7.0 | 0.00 | 0.00 | 0.00 | 52 | 1019.5 |
| 20260509103233 | 66 | 50 | 1.0 | 7.0 | 0.00 | 0.00 | 0.00 | 53 | 1019.4 |
| 20260509102716 | 65 | 39 | 1.0 | 9.0 | 0.00 | 0.00 | 0.00 | 54 | 1019.4 |
| 20260509102208 | 65 | 53 | 1.0 | 9.0 | 0.00 | 0.00 | 0.00 | 50 | 1019.4 |
| 20260509101708 | 65 | 13 | 1.0 | 9.0 | 0.00 | 0.00 | 0.00 | 52 | 1019.5 |
| 20260509101204 | 65 | 41 | 1.0 | 9.0 | 0.00 | 0.00 | 0.00 | 52 | 1019.5 |
| 20260509100704 | 65 | 33 | 0.0 | 4.0 | 0.00 | 0.00 | 0.00 | 56 | 1019.5 |
| 20260509100208 | 65 | 47 | 0.0 | 6.0 | 0.00 | 0.00 | 0.00 | 54 | 1019.6 |
| 20260509095704 | 65 | 62 | 0.0 | 6.0 | 0.00 | 0.00 | 0.00 | 53 | 1019.6 |
| 20260509095205 | 64 | 70 | 0.0 | 4.0 | 0.00 | 0.00 | 0.00 | 54 | 1019.6 |
| 20260509094703 | 64 | 48 | 0.0 | 5.0 | 0.00 | 0.00 | 0.00 | 55 | 1019.6 |
| 20260509094204 | 64 | 26 | 0.0 | 5.0 | 0.00 | 0.00 | 0.00 | 53 | 1019.6 |
| 20260509093703 | 64 | 34 | 0.0 | 2.0 | 0.00 | 0.00 | 0.00 | 53 | 1019.6 |
| 20260509093204 | 65 | 15 | 0.0 | 2.0 | 0.00 | 0.00 | 0.00 | 56 | 1019.6 |
| 20260509092703 | 65 | 58 | 0.0 | 4.0 | 0.00 | 0.00 | 0.00 | 55 | 1019.7 |
| 20260509091704 | 64 | 62 | 1.0 | 4.0 | 0.00 | 0.00 | 0.00 | 57 | 1019.6 |
| 20260509091203 | 63 | 30 | 1.0 | 4.0 | 0.00 | 0.00 | 0.00 | 58 | 1019.6 |
| 20260509090703 | 63 | 36 | 0.0 | 4.0 | 0.00 | 0.00 | 0.00 | 58 | 1019.6 |
| 20260509090205 | 63 | 41 | 1.0 | 3.0 | 0.00 | 0.00 | 0.00 | 58 | 1019.6 |
| 20260509085136 | 62 | 47 | 1.0 | 6.0 | 0.00 | 0.00 | 0.00 | 60 | 1019.5 |
| 20260509084133 | 62 | 54 | 0.0 | 6.0 | 0.00 | 0.00 | 0.00 | 63 | 1019.6 |
| 20260509083139 | 61 | 40 | 0.0 | 6.0 | 0.00 | 0.00 | 0.00 | 63 | 1019.6 |
| 20260509082613 | 61 | 22 | 1.0 | 9.0 | 0.00 | 0.00 | 0.00 | 66 | 1019.6 |
| 20260509082111 | 61 | 22 | 2.0 | 9.0 | 0.00 | 0.00 | 0.00 | 66 | 1019.6 |
| 20260509081614 | 60 | 43 | 2.0 | 9.0 | 0.00 | 0.00 | 0.00 | 66 | 1019.6 |
| 20260509081103 | 60 | 30 | 2.0 | 9.0 | 0.00 | 0.00 | 0.00 | 67 | 1019.7 |
| 20260509075538 | 60 | 48 | 0.0 | 7.0 | 0.00 | 0.00 | 0.00 | 68 | 1019.7 |
| 20260509074535 | 60 | 52 | 0.0 | 4.0 | 0.00 | 0.00 | 0.00 | 71 | 1019.7 |
| 20260509074057 | 60 | 31 | 0.0 | 2.0 | 0.00 | 0.00 | 0.00 | 71 | 1019.8 |
| 20260509073609 | 59 | 46 | 0.0 | 4.0 | 0.00 | 0.00 | 0.00 | 73 | 1019.7 |
| 20260509073032 | 59 | 46 | 0.0 | 6.0 | 0.00 | 0.00 | 0.00 | 73 | 1019.8 |
| 20260509072550 | 59 | 42 | 0.0 | 6.0 | 0.00 | 0.00 | 0.00 | 74 | 1019.8 |
| 20260509072035 | 58 | 40 | 0.0 | 3.0 | 0.00 | 0.00 | 0.00 | 74 | 1019.8 |
| 20260509071036 | 58 | 39 | 0.0 | 3.0 | 0.00 | 0.00 | 0.00 | 76 | 1019.8 |
| 20260509070538 | 57 | 50 | 0.0 | 2.0 | 0.00 | 0.00 | 0.00 | 77 | 1019.9 |
| 20260509070027 | 57 | 50 | 0.0 | 2.0 | 0.00 | 0.00 | 0.00 | 77 | 1019.8 |
| 20260509065535 | 57 | 41 | 0.0 | 2.0 | 0.00 | 0.00 | 0.00 | 79 | 1019.8 |
| 20260509064520 | 56 | 67 | 0.0 | 4.0 | 0.00 | 0.00 | 0.00 | 80 | 1019.8 |
| 20260509064025 | 56 | 39 | 0.0 | 1.0 | 0.00 | 0.00 | 0.00 | 83 | 1019.9 |
| 20260509063501 | 55 | 42 | 0.0 | 3.0 | 0.00 | 0.00 | 0.00 | 84 | 1019.8 |
| 20260509063002 | 55 | 26 | 0.0 | 3.0 | 0.00 | 0.00 | 0.00 | 84 | 1019.8 |
| 20260509062503 | 54 | 47 | 0.0 | 3.0 | 0.00 | 0.00 | 0.00 | 85 | 1019.8 |
| 20260509061455 | 54 | 41 | 0.0 | 1.0 | 0.00 | 0.00 | 0.00 | 87 | 1019.9 |
| 20260509060953 | 53 | 27 | 0.0 | 2.0 | 0.00 | 0.00 | 0.00 | 88 | 1019.9 |
| 20260509055952 | 52 | 27 | 0.0 | 2.0 | 0.00 | 0.00 | 0.00 | 88 | 1019.8 |
| 20260509055452 | 52 | 32 | 0.0 | 2.0 | 0.00 | 0.00 | 0.00 | 88 | 1019.8 |
| 20260509054948 | 51 | 50 | 0.0 | 1.0 | 0.00 | 0.00 | 0.00 | 89 | 1019.8 |
| 20260509054435 | 51 | 49 | 0.0 | 1.0 | 0.00 | 0.00 | 0.00 | 89 | 1019.8 |
| 20260509053436 | 50 | 32 | 0.0 | 1.0 | 0.00 | 0.00 | 0.00 | 90 | 1019.7 |
| 20260509052421 | 50 | 39 | 0.0 | 0.0 | 0.00 | 0.00 | 0.00 | 90 | 1019.6 |
| 20260509051906 | 49 | 44 | 0.0 | 1.0 | 0.00 | 0.00 | 0.00 | 90 | 1019.5 |
| 20260509051405 | 49 | 44 | 0.0 | 1.0 | 0.00 | 0.00 | 0.00 | 90 | 1019.6 |
| 20260509050904 | 49 | 49 | 0.0 | 0.0 | 0.00 | 0.00 | 0.00 | 90 | 1019.5 |
| 20260509050408 | 48 | 49 | 0.0 | 0.0 | 0.00 | 0.00 | 0.00 | 90 | 1019.5 |
| 20260509045904 | 48 | 48 | 0.0 | 0.0 | 0.00 | 0.00 | 0.00 | 90 | 1019.4 |
| 20260509044905 | 48 | 48 | 0.0 | 0.0 | 0.00 | 0.00 | 0.00 | 90 | 1019.3 |
| 20260509044337 | 48 | 48 | 0.0 | 0.0 | 0.00 | 0.00 | 0.00 | 90 | 1019.4 |
| 20260509043826 | 48 | 48 | 0.0 | 0.0 | 0.00 | 0.00 | 0.00 | 90 | 1019.3 |
| 20260509043310 | 48 | 48 | 0.0 | 0.0 | 0.00 | 0.00 | 0.00 | 90 | 1019.3 |
| 20260509042805 | 47 | 48 | 0.0 | 0.0 | 0.00 | 0.00 | 0.00 | 90 | 1019.3 |
| 20260509041304 | 47 | 48 | 0.0 | 0.0 | 0.00 | 0.00 | 0.00 | 89 | 1019.2 |
| 20260509040806 | 47 | 48 | 0.0 | 0.0 | 0.00 | 0.00 | 0.00 | 89 | 1019.3 |
| 20260509035804 | 48 | 48 | 0.0 | 0.0 | 0.00 | 0.00 | 0.00 | 89 | 1019.2 |
| 20260509035306 | 48 | 48 | 0.0 | 0.0 | 0.00 | 0.00 | 0.00 | 89 | 1019.2 |
| 20260509034805 | 48 | 48 | 0.0 | 0.0 | 0.00 | 0.00 | 0.00 | 89 | 1019.2 |
| 20260509034233 | 48 | 48 | 0.0 | 0.0 | 0.00 | 0.00 | 0.00 | 89 | 1019.2 |
| 20260509033734 | 48 | 48 | 0.0 | 0.0 | 0.00 | 0.00 | 0.00 | 89 | 1019.2 |
| 20260509033232 | 48 | 48 | 0.0 | 0.0 | 0.00 | 0.00 | 0.00 | 89 | 1019.2 |
| 20260509032233 | 48 | 48 | 0.0 | 0.0 | 0.00 | 0.00 | 0.00 | 89 | 1019.3 |
| 20260509031734 | 48 | 48 | 0.0 | 0.0 | 0.00 | 0.00 | 0.00 | 89 | 1019.3 |
| 20260509031233 | 49 | 48 | 0.0 | 0.0 | 0.00 | 0.00 | 0.00 | 89 | 1019.3 |
| 20260509030731 | 49 | 48 | 0.0 | 0.0 | 0.00 | 0.00 | 0.00 | 89 | 1019.4 |
| 20260509030232 | 49 | 48 | 0.0 | 0.0 | 0.00 | 0.00 | 0.00 | 89 | 1019.3 |
| 20260509025730 | 49 | 48 | 0.0 | 0.0 | 0.00 | 0.00 | 0.00 | 89 | 1019.3 |
| 20260509025222 | 49 | 48 | 0.0 | 0.0 | 0.00 | 0.00 | 0.00 | 88 | 1019.3 |
| 20260509024724 | 49 | 48 | 0.0 | 0.0 | 0.00 | 0.00 | 0.00 | 88 | 1019.3 |
| 20260509024204 | 49 | 48 | 0.0 | 0.0 | 0.00 | 0.00 | 0.00 | 88 | 1019.4 |
| 20260509023206 | 49 | 48 | 0.0 | 0.0 | 0.00 | 0.00 | 0.00 | 88 | 1019.3 |
| 20260509022635 | 49 | 48 | 0.0 | 0.0 | 0.00 | 0.00 | 0.00 | 88 | 1019.4 |
| 20260509022137 | 49 | 48 | 0.0 | 0.0 | 0.00 | 0.00 | 0.00 | 88 | 1019.4 |
| 20260509021608 | 49 | 48 | 0.0 | 0.0 | 0.00 | 0.00 | 0.00 | 87 | 1019.4 |
| 20260509020607 | 50 | 48 | 0.0 | 0.0 | 0.00 | 0.00 | 0.00 | 87 | 1019.4 |
| 20260509020108 | 50 | 48 | 0.0 | 0.0 | 0.00 | 0.00 | 0.00 | 87 | 1019.4 |
| 20260509015108 | 50 | 48 | 0.0 | 0.0 | 0.00 | 0.00 | 0.00 | 86 | 1019.5 |
| 20260509014603 | 50 | 48 | 0.0 | 0.0 | 0.00 | 0.00 | 0.00 | 86 | 1019.5 |
| 20260509014042 | 50 | 48 | 0.0 | 0.0 | 0.00 | 0.00 | 0.00 | 86 | 1019.4 |
| 20260509013532 | 50 | 48 | 0.0 | 0.0 | 0.00 | 0.00 | 0.00 | 86 | 1019.5 |
| 20260509013033 | 50 | 48 | 0.0 | 0.0 | 0.00 | 0.00 | 0.00 | 87 | 1019.5 |
| 20260509012038 | 50 | 47 | 0.0 | 0.0 | 0.00 | 0.00 | 0.00 | 87 | 1019.4 |
| 20260509011538 | 50 | 47 | 0.0 | 0.0 | 0.00 | 0.00 | 0.00 | 87 | 1019.4 |
| 20260509011022 | 50 | 47 | 0.0 | 0.0 | 0.00 | 0.00 | 0.00 | 87 | 1019.3 |
| 20260509010513 | 50 | 65 | 0.0 | 0.0 | 0.00 | 0.00 | 0.00 | 87 | 1019.3 |
| 20260509010007 | 50 | 65 | 0.0 | 0.0 | 0.00 | 0.00 | 0.00 | 87 | 1019.3 |
| 20260509005509 | 49 | 65 | 0.0 | 0.0 | 0.00 | 0.00 | 0.00 | 87 | 1019.4 |
| 20260509004948 | 49 | 68 | 0.0 | 0.0 | 0.00 | 0.00 | 0.00 | 87 | 1019.4 |
| 20260509004440 | 50 | 68 | 0.0 | 0.0 | 0.00 | 0.00 | 0.00 | 87 | 1019.4 |
| 20260509003923 | 50 | 68 | 0.0 | 0.0 | 0.00 | 0.00 | 0.00 | 87 | 1019.4 |
| 20260509002907 | 50 | 68 | 0.0 | 0.0 | 0.00 | 0.00 | 0.00 | 87 | 1019.4 |
| 20260509002409 | 50 | 68 | 0.0 | 0.0 | 0.00 | 0.00 | 0.00 | 87 | 1019.4 |
| 20260509001905 | 50 | 68 | 0.0 | 0.0 | 0.00 | 0.00 | 0.00 | 87 | 1019.4 |
| 20260509001402 | 50 | 68 | 0.0 | 0.0 | 0.00 | 0.00 | 0.00 | 87 | 1019.3 |
| 20260509000838 | 50 | 68 | 0.0 | 0.0 | 0.00 | 0.00 | 0.00 | 87 | 1019.4 |
| 20260509000334 | 50 | 68 | 0.0 | 0.0 | 0.00 | 0.00 | 0.00 | 87 | 1019.3 |
| 20260508235335 | 50 | 68 | 0.0 | 0.0 | 0.00 | 0.00 | 0.00 | 87 | 1019.2 |
| 20260508234336 | 50 | 68 | 0.0 | 0.0 | 0.00 | 0.00 | 0.00 | 88 | 1019.2 |
| 20260508233833 | 50 | 68 | 0.0 | 0.0 | 0.00 | 0.00 | 0.00 | 88 | 1019.3 |
| 20260508233311 | 50 | 68 | 0.0 | 0.0 | 0.00 | 0.00 | 0.00 | 88 | 1019.2 |
| 20260508232309 | 50 | 68 | 0.0 | 0.0 | 0.00 | 0.00 | 0.00 | 88 | 1019.3 |
| 20260508231306 | 50 | 68 | 0.0 | 0.0 | 0.00 | 0.00 | 0.00 | 87 | 1019.2 |
| 20260508230806 | 50 | 68 | 0.0 | 0.0 | 0.00 | 0.00 | 0.00 | 87 | 1019.3 |
| 20260508230305 | 50 | 68 | 0.0 | 0.0 | 0.00 | 0.00 | 0.00 | 87 | 1019.3 |
| 20260508225805 | 50 | 68 | 0.0 | 0.0 | 0.00 | 0.00 | 0.00 | 86 | 1019.3 |
| 20260508225234 | 50 | 68 | 0.0 | 0.0 | 0.00 | 0.00 | 0.00 | 87 | 1019.3 |
| 20260508224732 | 50 | 68 | 0.0 | 0.0 | 0.00 | 0.00 | 0.00 | 86 | 1019.2 |
| 20260508224232 | 50 | 68 | 0.0 | 0.0 | 0.00 | 0.00 | 0.00 | 86 | 1019.2 |
| 20260508223208 | 50 | 69 | 0.0 | 0.0 | 0.00 | 0.00 | 0.00 | 85 | 1019.2 |
| 20260508222705 | 50 | 69 | 0.0 | 0.0 | 0.00 | 0.00 | 0.00 | 85 | 1019.2 |
| 20260508222142 | 50 | 69 | 0.0 | 0.0 | 0.00 | 0.00 | 0.00 | 85 | 1019.2 |
| 20260508221134 | 50 | 69 | 0.0 | 0.0 | 0.00 | 0.00 | 0.00 | 84 | 1019.2 |
| 20260508220133 | 51 | 69 | 0.0 | 0.0 | 0.00 | 0.00 | 0.00 | 85 | 1019.2 |
| 20260508215610 | 51 | 69 | 0.0 | 0.0 | 0.00 | 0.00 | 0.00 | 84 | 1019.2 |
| 20260508215113 | 51 | 69 | 0.0 | 0.0 | 0.00 | 0.00 | 0.00 | 84 | 1019.3 |
| 20260508214605 | 51 | 69 | 0.0 | 0.0 | 0.00 | 0.00 | 0.00 | 83 | 1019.3 |
| 20260508214104 | 51 | 69 | 0.0 | 0.0 | 0.00 | 0.00 | 0.00 | 83 | 1019.3 |
| 20260508213606 | 51 | 69 | 0.0 | 0.0 | 0.00 | 0.00 | 0.00 | 83 | 1019.3 |
| 20260508212607 | 52 | 69 | 0.0 | 0.0 | 0.00 | 0.00 | 0.00 | 83 | 1019.2 |
| 20260508212113 | 52 | 69 | 0.0 | 0.0 | 0.00 | 0.00 | 0.00 | 82 | 1019.2 |
| 20260508211611 | 52 | 69 | 0.0 | 0.0 | 0.00 | 0.00 | 0.00 | 82 | 1019.3 |
| 20260508210539 | 53 | 69 | 0.0 | 0.0 | 0.00 | 0.00 | 0.00 | 79 | 1019.2 |
| 20260508210038 | 53 | 69 | 0.0 | 0.0 | 0.00 | 0.00 | 0.00 | 79 | 1019.2 |
| 20260508205523 | 53 | 69 | 0.0 | 0.0 | 0.00 | 0.00 | 0.00 | 79 | 1019.2 |
| 20260508205027 | 54 | 69 | 0.0 | 0.0 | 0.00 | 0.00 | 0.00 | 78 | 1019.2 |
| 20260508204020 | 54 | 69 | 0.0 | 0.0 | 0.00 | 0.00 | 0.00 | 77 | 1019.1 |
| 20260508203518 | 54 | 69 | 0.0 | 0.0 | 0.00 | 0.00 | 0.00 | 75 | 1019.1 |
| 20260508203010 | 54 | 69 | 0.0 | 0.0 | 0.00 | 0.00 | 0.00 | 74 | 1019.1 |
| 20260508202023 | 55 | 69 | 0.0 | 0.0 | 0.00 | 0.00 | 0.00 | 73 | 1019.2 |
| 20260508201508 | 55 | 69 | 0.0 | 0.0 | 0.00 | 0.00 | 0.00 | 73 | 1019.2 |
| 20260508201023 | 55 | 69 | 0.0 | 0.0 | 0.00 | 0.00 | 0.00 | 72 | 1019.1 |
| 20260508195950 | 56 | 69 | 0.0 | 0.0 | 0.00 | 0.00 | 0.00 | 70 | 1019.1 |
| 20260508195434 | 56 | 69 | 0.0 | 0.0 | 0.00 | 0.00 | 0.00 | 69 | 1019.1 |
| 20260508194933 | 57 | 69 | 0.0 | 0.0 | 0.00 | 0.00 | 0.00 | 69 | 1019.0 |
| 20260508194433 | 57 | 69 | 0.0 | 0.0 | 0.00 | 0.00 | 0.00 | 69 | 1019.0 |
| 20260508193922 | 57 | 69 | 0.0 | 0.0 | 0.00 | 0.00 | 0.00 | 65 | 1019.0 |
| 20260508193418 | 58 | 55 | 0.0 | 0.0 | 0.00 | 0.00 | 0.00 | 64 | 1019.0 |
| 20260508192405 | 58 | 46 | 0.0 | 0.0 | 0.00 | 0.00 | 0.00 | 63 | 1018.8 |